RADCAL 1 22698U 93041A 12040.32471019 .00000057 00000-0 18688-4 0 1245 2 22698 89.5510 336.9086 0091248 40.5467 320.2491 14.22934262966795 STRV 1A 1 23125U 94034B 12040.82592463 .00002366 00000-0 64741-3 0 9508 2 23125 7.3870 273.8992 6787268 262.8713 21.6688 2.92017332167366 STRV 1B 1 23126U 94034C 12040.03168210 .00002555 00000-0 48746-3 0 105 2 23126 7.0594 205.4431 6730574 39.2496 353.9355 3.00497825170206 REX 2 1 23814U 96014A 12040.76224919 .00000113 00000-0 44260-4 0 4894 2 23814 90.1513 289.4156 0024231 31.1781 329.0841 14.24004588827232 COSMOS 2346 1 24953U 97052A 12040.85373898 .00000040 00000-0 24139-4 0 3478 2 24953 82.9227 311.4248 0038736 294.8932 64.8202 13.79466806724030 ARGOS 1 25634U 99008A 12041.13147873 .00000229 00000-0 13122-3 0 5179 2 25634 98.8736 102.0316 0010974 64.4296 295.8019 14.19000963671313 HELIOS 1B 1 25977U 99064A 12040.64041284 .00000493 00000-0 75224-4 0 5473 2 25977 98.2762 88.3843 0002311 91.0077 269.1391 14.78435168654824 MTI 1 26102U 00014A 12041.12771693 .00002741 00000-0 14868-3 0 6148 2 26102 97.3397 176.1803 0018719 359.6098 107.6519 15.15242209655728 STRV 1C 1 26610U 00072C 12040.28014701 -.00000060 00000-0 00000+0 0 3141 2 26610 6.9723 321.5380 7346508 340.9305 2.0863 2.03466944 83517 MIDSTAR-1 1 30773U 07006B 12040.64203793 .00001355 00000-0 62035-4 0 4094 2 30773 46.0809 237.1467 0009213 21.0008 339.1268 15.26875614274386 CFESAT 1 30777U 07006F 12040.88400412 .00003115 00000-0 21182-3 0 2867 2 30777 35.4327 348.5145 0005575 316.8139 43.2142 15.06056440270795 NFIRE 1 31140U 07014A 12040.47228297 .00010153 00000-0 21006-3 0 7067 2 31140 48.2262 94.2615 0008304 249.4168 110.5880 15.46252783272389 SPIRALE A 1 33751U 09008C 12039.67340087 .00010973 00000-0 72462-3 0 7617 2 33751 1.8467 185.8853 6731153 35.9128 354.4390 3.03597627 26311 SPIRALE B 1 33752U 09008D 12039.96760287 .00003045 00000-0 90473-3 0 6655 2 33752 1.8751 224.9078 7211979 318.9253 4.7270 2.36834347 24942 TACSAT 3 1 35001U 09028A 12040.47795326 .00084381 00000-0 60405-3 0 8595 2 35001 40.4472 153.9174 0005454 64.8953 295.2385 15.72634015154081